[[{"header":{"parameterUnit":"m.s-1","parameterCategory":1,"la1":30.2991,"la2":30.254,"lo1":-89.0895,"lo2":-89.0444,"dy":0.0017,"dx":0.0017,"nx":28,"ny":28,"refTime":"2024-08-01T09:00:00:Z","depth":0,"parameterNumber":2,"parameterNumberName":"U-component_of_WINDS"},"data":[0,0,0,0,0,0,0,0,0,0,0,0,0,0,0,0,0,0,0,0,0,0,0,0,0,0,0,0,0,0,0,0,0,0,0,0,0,0,0,0,0,0,0,0,0,0,0,0,0,0,0,0,0,0,0,0,0,0,1.34,1.34,0,1.341,1.341,1.341,1.3414,1.3414,1.3414,1.3414,1.3424,1.3425,1.3425,0,0,0,0,0,0,0,0,0,0,0,0,0,1.3384,1.3384,1.34,1.34,1.34,1.341,1.341,1.341,1.3414,1.3414,1.3414,1.3414,1.3424,1.3425,1.3425,0,0,0,0,0,0,0,0,0,0,0,0,0,1.3392,1.3384,1.34,1.3403,1.3404,1.341,1.341,1.3411,1.3414,1.3414,1.3414,1.3414,1.3424,1.3425,1.3425,1.3429,0,0,1.3426,1.3427,0,0,0,0,0,0,0,0,1.3392,1.3393,1.3403,1.3403,1.3404,1.3411,1.3409,1.3417,1.3414,1.341,1.3414,1.3414,1.342,1.3421,1.3423,1.3429,1.343,1.3427,1.3427,1.3427,1.3427,0,0,0,0,0,0,0,1.3391,1.3393,1.3404,1.3403,1.3403,1.3405,1.3406,1.341,1.3415,1.3411,1.3411,1.3412,1.342,1.3422,1.3423,1.343,1.3427,1.3427,1.3427,1.3427,1.3441,1.3441,0,0,0,0,0,0,1.339,1.3392,1.3404,1.3404,1.3398,1.3405,1.3406,1.3409,1.3415,1.3416,1.3412,1.3412,1.3422,1.3423,1.3423,1.3429,1.3427,1.3427,1.3428,1.3441,1.3441,1.3441,0,0,0,0,0,0,1.339,1.3391,1.3403,1.3398,1.34,1.3405,1.3408,1.3409,1.3411,1.3416,1.3417,1.3413,1.3422,1.3423,1.3428,1.3429,1.3428,1.3428,1.344,1.3441,1.3441,1.3439,0,0,0,0,0,0,1.3389,1.3391,1.3392,1.3398,1.34,1.3407,1.3408,1.3409,1.3412,1.3412,1.3418,1.3419,1.3422,1.3427,1.3428,1.343,1.3428,1.344,1.3441,1.3441,1.3439,1.3439,1.3439,0,0,0,0,0,1.3389,1.3391,1.3392,1.3394,1.3402,1.3407,1.3408,1.3412,1.3412,1.3413,1.3417,1.3418,1.3429,1.3427,1.3429,1.343,1.344,1.344,1.3441,1.3438,1.3439,1.3439,0,0,0,0,0,0,1.3385,1.3392,1.3393,1.3398,1.3402,1.3408,1.341,1.3412,1.3416,1.3416,1.342,1.3421,1.3426,1.3429,1.3427,1.3435,1.3435,1.3435,1.3433,1.3433,1.3433,1.3432,1.3429,0,0,0,0,0,1.3384,1.3388,1.3394,1.3397,1.3399,1.3404,1.3407,1.3409,1.3414,1.3415,1.3419,1.3423,1.3428,1.343,1.3435,1.3439,1.3441,1.3441,1.3441,1.3441,1.3441,1.3445,1.3445,1.3441,1.3441,1.3441,0,0,1.3383,1.3388,1.339,1.3397,1.34,1.3404,1.3406,1.3409,1.3413,1.3416,1.3421,1.3424,1.3429,1.3434,1.3436,1.3436,1.3443,1.3441,1.3441,1.3442,1.3445,1.3445,1.3445,1.3442,1.3441,1.3441,0,0,1.3384,1.3387,1.3391,1.3395,1.34,1.3403,1.3404,1.341,1.3413,1.3418,1.3421,1.3424,1.3431,1.3435,1.3438,1.3441,1.3443,1.3442,1.3443,1.3446,1.3446,1.3446,1.3448,1.3448,1.3443,1.3443,1.3443,0,1.3382,1.3388,1.3392,1.3396,1.3399,1.3403,1.3407,1.341,1.3417,1.3419,1.3419,1.3429,1.3432,1.3438,1.3439,1.3441,1.3443,1.3441,1.3446,1.3446,1.3446,1.3448,1.3448,1.3443,1.3443,1.3443,1.3443,0,1.3386,1.339,1.3392,1.3399,1.3402,1.3406,1.3411,1.3414,1.3416,1.342,1.3425,1.343,1.3435,1.3437,1.3439,1.3444,1.3444,1.3445,1.3445,1.3446,1.3448,1.3448,1.3442,1.3443,1.3443,1.3443,0,0,1.3383,1.3393,1.3393,1.3397,1.3404,1.3407,1.3411,1.3417,1.342,1.3424,1.3428,1.3435,1.3436,1.3439,1.3442,1.3445,1.3447,1.3445,1.3446,1.3446,1.3453,1.3452,1.3453,1.3449,1.3449,1.3449,1.3453,0,1.3384,1.3392,1.3397,1.3403,1.3407,1.3411,1.3415,1.342,1.3423,1.3427,1.3432,1.3436,1.3437,1.3439,1.3442,1.3446,1.3449,1.3446,1.3453,1.3453,1.3451,1.3454,1.3453,1.3456,1.3453,1.3453,1.3454,0,1.3387,1.3392,1.3399,1.3406,1.3408,1.3411,1.3417,1.3421,1.3427,1.3429,1.3433,1.3437,1.3442,1.3442,1.3449,1.3447,1.345,1.3453,1.3453,1.3453,1.3453,1.3454,1.3457,1.3457,1.3454,1.3454,1.3454,0,1.3385,1.3393,1.3398,1.3401,1.3409,1.3412,1.3415,1.3421,1.3425,1.343,1.3432,1.3438,1.3441,1.3446,1.3451,1.345,1.3458,1.3458,1.346,1.346,1.3461,1.3461,1.3464,1.3463,1.3463,1.3463,1.3463,0,1.3386,1.339,1.3397,1.3401,1.3405,1.3411,1.3415,1.3419,1.3424,1.3429,1.3433,1.3437,1.3443,1.3447,1.3451,1.3457,1.3458,1.346,1.3461,1.346,1.346,1.3462,1.3462,1.3463,1.3463,1.3463,1.3463,0,1.3384,1.3389,1.3395,1.3403,1.3405,1.3408,1.3415,1.3418,1.3423,1.3428,1.343,1.3436,1.3442,1.3447,1.3455,1.3458,1.3463,1.3465,1.3461,1.3462,1.3464,1.3464,1.3469,1.347,1.3468,1.3468,1.3468,0,1.3384,1.3387,1.3395,1.3399,1.3402,1.3407,1.3411,1.3417,1.3421,1.3428,1.3431,1.3437,1.3442,1.3452,1.3457,1.3463,1.3465,1.3466,1.3466,1.3464,1.3465,1.3465,1.3465,1.3466,1.3466,1.3466,1.3466,0,1.3384,1.3387,1.3392,1.3398,1.3403,1.3408,1.3413,1.3416,1.3423,1.3427,1.3433,1.3437,1.3445,1.3452,1.3459,1.3463,1.3465,1.3466,1.3467,1.3465,1.3464,1.3465,1.3461,1.3466,1.3466,1.3466,1.3466,1.3466,1.3383,1.3386,1.3393,1.3399,1.3404,1.3409,1.3413,1.3418,1.3423,1.343,1.3434,1.344,1.3447,1.3456,1.346,1.3466,1.3466,1.3467,1.3468,1.3468,1.3468,1.3463,1.3467,1.3467,1.3467,1.3467,1.3467,0,1.3383,1.3388,1.3394,1.3401,1.3406,1.3409,1.3415,1.3419,1.3425,1.3431,1.3436,1.3444,1.345,1.3456,1.3463,1.3466,1.3468,1.3468,1.3468,1.3469,1.3467,1.3465,1.3467,1.3467,1.3467,1.3467,1.3467,1.3467,1.3384,1.339,1.3394,1.3402,1.3407,1.3413,1.3417,1.3422,1.3427,1.3435,1.3441,1.3445,1.3451,1.3459,1.3465,1.3467,1.3469,1.3469,1.3471,1.3469,1.3469,1.3469,1.3467,1.3469,1.3469,1.3472,1.3473,1.3473]},{"header":{"parameterUnit":"m.s-1","parameterCategory":1,"la1":30.2991,"la2":30.254,"lo1":-89.0895,"lo2":-89.0444,"dy":0.0017,"dx":0.0017,"nx":28,"ny":28,"refTime":"2024-08-01T09:00:00:Z","depth":0,"parameterNumber":3,"parameterNumberName":"V-component_of_WINDS"},"data":[0,0,0,0,0,0,0,0,0,0,0,0,0,0,0,0,0,0,0,0,0,0,0,0,0,0,0,0,0,0,0,0,0,0,0,0,0,0,0,0,0,0,0,0,0,0,0,0,0,0,0,0,0,0,0,0,0,0,-0.7664,-0.7665,0,-0.7715,-0.7715,-0.7716,-0.7703,-0.7702,-0.7701,-0.77,-0.7752,-0.7754,-0.7756,0,0,0,0,0,0,0,0,0,0,0,0,0,-0.7558,-0.756,-0.7664,-0.7665,-0.7665,-0.7715,-0.7715,-0.7716,-0.7703,-0.7702,-0.7701,-0.77,-0.7751,-0.7754,-0.7756,0,0,0,0,0,0,0,0,0,0,0,0,0,-0.7606,-0.7561,-0.7664,-0.7665,-0.7666,-0.7714,-0.7715,-0.7716,-0.7703,-0.7702,-0.77,-0.7699,-0.775,-0.7753,-0.7757,-0.7808,0,0,-0.7767,-0.7769,0,0,0,0,0,0,0,0,-0.7603,-0.761,-0.7664,-0.7665,-0.7666,-0.7701,-0.7697,-0.7747,-0.7704,-0.7689,-0.77,-0.7698,-0.7736,-0.7741,-0.7753,-0.781,-0.7813,-0.7768,-0.777,-0.7771,-0.7772,0,0,0,0,0,0,0,-0.76,-0.7608,-0.7684,-0.7665,-0.7666,-0.7663,-0.7668,-0.7706,-0.772,-0.769,-0.7689,-0.7696,-0.7736,-0.775,-0.7754,-0.7813,-0.7768,-0.7771,-0.7773,-0.7774,-0.7918,-0.7919,0,0,0,0,0,0,-0.7596,-0.7605,-0.7683,-0.7686,-0.763,-0.7666,-0.7672,-0.7691,-0.772,-0.7723,-0.7697,-0.7695,-0.7745,-0.775,-0.7756,-0.782,-0.7771,-0.7774,-0.7776,-0.7916,-0.7918,-0.792,0,0,0,0,0,0,-0.7594,-0.7603,-0.7681,-0.7645,-0.7655,-0.767,-0.7691,-0.7693,-0.7707,-0.7725,-0.7727,-0.7708,-0.7744,-0.7751,-0.7796,-0.7822,-0.7776,-0.7779,-0.7914,-0.7917,-0.7919,-0.7947,0,0,0,0,0,0,-0.7591,-0.7602,-0.7621,-0.7646,-0.7657,-0.7719,-0.7693,-0.7695,-0.7713,-0.7711,-0.7736,-0.7739,-0.7743,-0.7791,-0.7799,-0.7826,-0.7782,-0.7912,-0.7915,-0.7918,-0.7944,-0.795,-0.7956,0,0,0,0,0,-0.7587,-0.7627,-0.7622,-0.7632,-0.7681,-0.772,-0.7727,-0.7731,-0.7715,-0.7735,-0.7747,-0.7738,-0.7817,-0.7795,-0.7805,-0.7833,-0.791,-0.7914,-0.7918,-0.7941,-0.7949,-0.7956,0,0,0,0,0,0,-0.7604,-0.763,-0.7625,-0.7674,-0.7695,-0.7718,-0.7743,-0.7739,-0.7765,-0.7762,-0.7766,-0.7772,-0.7818,-0.7829,-0.7805,-0.7885,-0.7861,-0.7867,-0.7876,-0.7883,-0.7889,-0.7886,-0.7785,0,0,0,0,0,-0.7614,-0.7644,-0.7664,-0.7705,-0.7716,-0.7728,-0.7745,-0.7747,-0.7769,-0.7778,-0.7793,-0.7815,-0.7845,-0.7864,-0.7893,-0.7945,-0.7952,-0.7969,-0.7975,-0.798,-0.7985,-0.8016,-0.8025,-0.7933,-0.7933,-0.7933,0,0,-0.7634,-0.7651,-0.767,-0.7709,-0.7726,-0.7758,-0.7736,-0.7769,-0.7793,-0.7783,-0.7827,-0.7838,-0.7863,-0.7913,-0.7935,-0.7924,-0.8012,-0.7985,-0.7988,-0.7991,-0.8021,-0.803,-0.8038,-0.7936,-0.7935,-0.7935,0,0,-0.7687,-0.7702,-0.7739,-0.7757,-0.7783,-0.7791,-0.78,-0.7824,-0.7832,-0.7875,-0.7869,-0.7898,-0.7948,-0.7967,-0.7984,-0.8046,-0.804,-0.8055,-0.8086,-0.8116,-0.8124,-0.813,-0.8155,-0.8163,-0.806,-0.806,-0.806,0,-0.7709,-0.7756,-0.7759,-0.7794,-0.7812,-0.7805,-0.7844,-0.786,-0.7894,-0.7907,-0.7894,-0.796,-0.7976,-0.8031,-0.8046,-0.8059,-0.807,-0.8052,-0.8122,-0.8129,-0.8135,-0.8158,-0.8167,-0.8062,-0.8062,-0.8062,-0.8061,0,-0.7782,-0.7815,-0.7842,-0.7876,-0.7897,-0.7933,-0.7943,-0.7964,-0.7964,-0.7974,-0.802,-0.8039,-0.8072,-0.8085,-0.8085,-0.8141,-0.8133,-0.8121,-0.8098,-0.8146,-0.8168,-0.8176,-0.8065,-0.8064,-0.8063,-0.8063,0,0,-0.7847,-0.7884,-0.7894,-0.791,-0.7939,-0.7965,-0.8001,-0.8034,-0.8054,-0.8077,-0.8109,-0.8154,-0.8143,-0.8162,-0.8164,-0.819,-0.8241,-0.8175,-0.8176,-0.8188,-0.8307,-0.8317,-0.8327,-0.8237,-0.8238,-0.824,-0.8305,0,-0.7904,-0.7969,-0.7974,-0.8034,-0.8065,-0.806,-0.8092,-0.8114,-0.8124,-0.8153,-0.8164,-0.8196,-0.8179,-0.8191,-0.8216,-0.8229,-0.8265,-0.8224,-0.8268,-0.827,-0.8264,-0.8338,-0.8349,-0.841,-0.8314,-0.8315,-0.8316,0,-0.7979,-0.8007,-0.8069,-0.8096,-0.8109,-0.8138,-0.8171,-0.8197,-0.8223,-0.8228,-0.825,-0.8249,-0.8288,-0.8263,-0.8318,-0.829,-0.8308,-0.8317,-0.832,-0.8325,-0.8297,-0.8348,-0.8429,-0.8439,-0.8329,-0.8328,-0.8327,0,-0.8024,-0.8076,-0.8121,-0.8134,-0.8166,-0.8187,-0.8201,-0.8224,-0.8245,-0.8273,-0.8286,-0.8318,-0.8336,-0.8361,-0.8369,-0.8349,-0.8425,-0.8399,-0.8432,-0.8432,-0.8449,-0.8448,-0.8536,-0.8458,-0.8457,-0.8457,-0.8457,0,-0.8088,-0.8127,-0.8141,-0.8169,-0.8213,-0.8219,-0.8263,-0.8275,-0.8297,-0.8328,-0.8324,-0.8353,-0.8361,-0.8392,-0.8399,-0.8445,-0.8452,-0.8459,-0.8461,-0.846,-0.846,-0.8473,-0.847,-0.846,-0.8459,-0.8459,-0.8458,0,-0.8145,-0.8156,-0.8205,-0.8231,-0.8239,-0.827,-0.8293,-0.8321,-0.8331,-0.837,-0.838,-0.8396,-0.8432,-0.8442,-0.8486,-0.849,-0.8545,-0.8541,-0.8537,-0.8537,-0.8571,-0.8568,-0.8672,-0.8687,-0.8596,-0.8597,-0.8598,0,-0.8186,-0.8216,-0.8246,-0.8267,-0.8283,-0.8316,-0.8337,-0.8344,-0.8366,-0.8398,-0.8422,-0.8458,-0.8488,-0.8547,-0.8562,-0.8596,-0.8595,-0.8629,-0.86,-0.86,-0.8598,-0.8597,-0.8601,-0.8635,-0.8636,-0.8637,-0.8637,0,-0.8259,-0.8263,-0.8294,-0.8328,-0.8353,-0.838,-0.8405,-0.8422,-0.8433,-0.8458,-0.8496,-0.8519,-0.8564,-0.8601,-0.8636,-0.8651,-0.8647,-0.8646,-0.8656,-0.8657,-0.8654,-0.8659,-0.8554,-0.8644,-0.8643,-0.8643,-0.8642,-0.8642,-0.8311,-0.8339,-0.8365,-0.84,-0.842,-0.8444,-0.8472,-0.8486,-0.8518,-0.8556,-0.8558,-0.8599,-0.8625,-0.8671,-0.8689,-0.8722,-0.8712,-0.8725,-0.8729,-0.8733,-0.8737,-0.8647,-0.8728,-0.8727,-0.8727,-0.8727,-0.8727,0,-0.8386,-0.8402,-0.8435,-0.8471,-0.8499,-0.8493,-0.8521,-0.8545,-0.8582,-0.8606,-0.8636,-0.8681,-0.8717,-0.8736,-0.8772,-0.8795,-0.8794,-0.8804,-0.8804,-0.8808,-0.8742,-0.8732,-0.8804,-0.8804,-0.8804,-0.8804,-0.8804,-0.8804,-0.8428,-0.8475,-0.8483,-0.8541,-0.8557,-0.8598,-0.8615,-0.8638,-0.8659,-0.8709,-0.8739,-0.8751,-0.8774,-0.8812,-0.8846,-0.885,-0.8865,-0.8877,-0.8881,-0.882,-0.8812,-0.8804,-0.8794,-0.8879,-0.8879,-0.8943,-0.8944,-0.8944]}]]